Home   Weather   Pacific Point   Past weeks
Flag for USA

Past Weather in Pacific Point, Washington, USA — Yesterday and Last 2 Weeks

Currently: 37 °F. Drizzle. Overcast. (Weather station: Thun Field, USA). See more current weather

Past Weather in Pacific Point — Graph

°F

Pacific Point Temperature Yesterday

Maximum temperature yesterday: 45 °F (at 2:15 pm)
Minimum temperature yesterday: 32 °F (at 7:15 am)
Average temperature yesterday: 38 °F

High & Low Weather Summary for the Past Weeks

 TemperatureHumidityPressure
High63 °F (Nov 27, 9:15 pm)100% (Nov 19, 4:55 am)30.54 "Hg (Nov 19, 4:55 am)
Low28 °F (Nov 22, 6:55 am)58% (Nov 24, 12:35 pm)29.84 "Hg (Nov 23, 1:15 am)
Average47 °F92%30.22 "Hg
* Reported Nov 19 4:55 am — Dec 4 4:55 am, Pacific Point. Weather by CustomWeather, © 2021

Note: Actual official high and low records may vary slightly from our data, if they occured in-between our weather recording intervals... More about our weather records

Pacific Point Weather History for the Previous 24 Hours

Scroll right to see more
 ConditionsComfort  
Time TempWeatherWind HumidityBarometerVisibility
4:55 am
Sat, Dec 4
37 °FDrizzle. Overcast.No wind100%30.07 "Hg10 mi
4:15 am39 °FOvercast.No wind93%30.06 "Hg10 mi
3:55 am39 °FOvercast.No wind87%30.04 "Hg10 mi
3:35 am39 °FOvercast.No wind93%30.06 "Hg10 mi
2:55 am37 °FOvercast.No wind93%30.05 "Hg10 mi
2:35 am37 °FMostly cloudy.No wind93%30.03 "Hg10 mi
2:15 am37 °FMostly cloudy.No wind93%30.04 "Hg10 mi
1:55 am37 °FMostly cloudy.No wind93%30.04 "Hg10 mi
1:35 am37 °FMostly cloudy.No wind93%30.05 "Hg10 mi
1:15 am37 °FMostly cloudy.No wind93%30.05 "Hg10 mi
12:55 am37 °FOvercast.No wind100%30.06 "Hg10 mi
12:35 am37 °FOvercast.No wind100%30.07 "Hg10 mi
11:55 pm
Fri, Dec 3
37 °FPassing clouds.No wind93%30.08 "Hg10 mi
11:35 pm37 °FOvercast.No wind93%30.10 "Hg10 mi
10:55 pm37 °FOvercast.No wind93%30.11 "Hg10 mi
10:35 pm39 °FOvercast.No wind87%30.11 "Hg10 mi
10:15 pm39 °FOvercast.No wind87%30.12 "Hg10 mi
9:55 pm39 °FOvercast.No wind87%30.13 "Hg10 mi
9:35 pm39 °FOvercast.No wind87%30.14 "Hg10 mi
9:15 pm39 °FPassing clouds.No wind87%30.15 "Hg10 mi
8:55 pm39 °FPassing clouds.No wind87%30.12 "Hg10 mi
8:35 pm39 °FMostly cloudy.No wind87%30.14 "Hg10 mi
8:15 pm39 °FOvercast.No wind87%30.12 "Hg10 mi
7:55 pm39 °FMostly cloudy.No wind87%30.13 "Hg10 mi
7:35 pm39 °FOvercast.No wind87%30.14 "Hg10 mi
7:15 pm39 °FOvercast.No wind87%30.15 "Hg10 mi
6:55 pm39 °FOvercast.No wind87%30.15 "Hg10 mi
6:35 pm39 °FOvercast.No wind87%30.17 "Hg10 mi
6:15 pm39 °FOvercast.No wind93%30.17 "Hg10 mi
5:55 pm39 °FOvercast.No wind93%30.18 "Hg10 mi
5:35 pm39 °FOvercast.No wind87%30.18 "Hg10 mi
5:15 pm39 °FOvercast.No wind87%30.18 "Hg10 mi
4:55 pm39 °FOvercast.5 mph87%30.19 "Hg10 mi
4:15 pm41 °FOvercast.No wind81%30.19 "Hg10 mi
3:55 pm41 °FMostly cloudy.No wind81%30.20 "Hg10 mi
3:35 pm41 °FOvercast.No wind81%30.21 "Hg10 mi
3:15 pm43 °FPartly sunny.No wind71%30.21 "Hg10 mi
2:55 pm43 °FPassing clouds.No wind71%30.21 "Hg10 mi
2:35 pm43 °FPartly sunny.3 mph71%30.23 "Hg10 mi
2:15 pm45 °FOvercast.No wind66%30.23 "Hg10 mi
1:55 pm43 °FPartly sunny.No wind71%30.24 "Hg10 mi
1:35 pm43 °FSunny.No wind66%30.24 "Hg10 mi
12:55 pm43 °FPartly sunny.3 mph71%30.25 "Hg10 mi
12:35 pm41 °FPartly sunny.5 mph76%30.26 "Hg10 mi
12:15 pm41 °FScattered clouds.6 mph81%30.26 "Hg10 mi
11:55 am41 °FScattered clouds.5 mph81%30.26 "Hg10 mi
11:35 am41 °FPassing clouds.5 mph81%30.29 "Hg10 mi
11:15 am41 °FPassing clouds.No wind81%30.30 "Hg10 mi
10:55 am39 °FSunny.5 mph87%30.31 "Hg10 mi
10:35 am39 °FSunny.No wind87%30.31 "Hg10 mi
10:15 am37 °FSunny.No wind93%30.31 "Hg10 mi
9:55 am37 °FSunny.No wind93%30.32 "Hg10 mi
9:35 am37 °FSunny.No wind93%30.31 "Hg10 mi
9:15 am36 °FSunny.No wind100%30.30 "Hg10 mi
8:55 am36 °FSunny.No wind100%30.31 "Hg10 mi
8:15 am34 °FSunny.No wind100%30.32 "Hg10 mi
7:55 am34 °FSunny.No wind100%30.33 "Hg10 mi
7:35 am34 °FClear.No wind100%30.33 "Hg10 mi
7:15 am32 °FClear.No wind100%30.34 "Hg10 mi
6:35 am34 °FPassing clouds.No wind100%30.33 "Hg10 mi
6:15 am34 °FPassing clouds.No wind100%30.34 "Hg10 mi
Weather by CustomWeather, © 2021

See weather overview